Regional Weather Roundup
Issued by NWS

Home | Current Version | Previous Version | Graphics & Text | Print | Product List | Glossary On
Versions: 1 2 3 4 5 6 7 8 9 10 11 12 13 14 15 16 17 18 19 20 21 22 23 24 25 26 27 28 29 30 31 32 33 34 35 36 37 38 39 40 41 42 43 44 45 46 47 48 49 50
000
ASUS45 KABQ 310801
RWRNM
WEATHER ROUNDUP FOR NEW MEXICO
NATIONAL WEATHER SERVICE ALBUQUERQUE NM
200 AM MDT FRI OCT 31 2014

NOTE: "FAIR" MEANS FEW OR NO CLOUDS BELOW 12,000 FEET AGL WITH NO
       SIGNIFICANT WEATHER OR OBSTRUCTIONS TO VISION.

      THIS PRODUCT IS RELEASED AS TWO VERSIONS.  ONE VERSION NEAR
      THE TOP OF THE HOUR CONTAINING PRELIMINARY DATA FROM ALBUQUERQUE
      AND OTHER STATIONS.  A FINAL VERSION WITH ADDITIONAL DATA IS
      ISSUED ABOUT 10 MINUTES AFTER THE HOUR.

NMZ501-503-504-510>518-310900-
NORTHWEST PLATEAU/NORTHCENTRAL MOUNTAINS

CITY           SKY/WX    TMP DP  RH WIND       PRES   REMARKS
FARMINGTON     CLEAR     44  22  41 E10       30.27S
LOS ALAMOS     CLEAR     46  21  36 SW12      30.45S
SANTA FE       CLEAR     43  20  39 S5        30.41S
TAOS           CLEAR     34  10  37 N3        30.43S
ANGEL FIRE     FAIR      22  16  77 CALM      30.50S

$$
NMZ402-403-502-505>509-310900-
WESTCENTRAL MOUNTAINS/SOUTHWEST MOUNTAINS

CITY           SKY/WX    TMP DP  RH WIND       PRES   REMARKS
GALLUP         MOCLDY    49  17  28 S7        30.31R
GRANTS         MOCLDY    50  19  29 S12       30.37S
SILVER CITY    PTCLDY    45  32  61 NW8       30.31R

$$
NMZ407-409-411-412-310900-
SOUTHERN DESERTS

CITY           SKY/WX    TMP DP  RH WIND       PRES   REMARKS
LORDSBURG      FAIR      55  32  41 SE12      30.21S
DEMING         PTCLDY    57  32  38 NE9       30.24S
LAS CRUCES     PTCLDY    63  37  38 SE14G21   30.27R
HOLLOMAN AFB   CLEAR     49  32  52 E8        30.26R
T OR C         PTCLDY    53  27  36 NW8       30.27F

$$
NMZ519>523-310900-
CENTRAL VALLEYS/CENTRAL HIGHLANDS

CITY           SKY/WX    TMP DP  RH WIND       PRES   REMARKS
ALBUQUERQUE    CLEAR     56  24  29 E17       30.33S
DOUBLE EAGLE   CLEAR     43  21  41 NW3       30.37S
MORIARTY ARPT  FAIR      28  17  62 CALM      30.45R
CLINES CORNERS CLEAR     39  22  50 E9        30.44S WCI  33
BELEN          NOT AVBL
SOCORRO        FAIR      47  28  47 CALM      30.31S

$$
NMZ524>526-539-540-310900-
SOUTHCENTRAL MOUNTAINS

CITY           SKY/WX    TMP DP  RH WIND       PRES   REMARKS
RUIDOSO        CLEAR     41  27  56 S6        30.47S

$$
NMZ527>531-310900-
NORTHEAST HIGHLANDS/NORTHEAST PLAINS

CITY           SKY/WX    TMP DP  RH WIND       PRES   REMARKS
LAS VEGAS      CLEAR     34  21  59 NE6       30.47S WCI  29
RATON          PTCLDY    38  22  52 CALM      30.45S
CLAYTON        CLEAR     36  23  59 CALM      30.43S

$$
NMZ532>537-310900-
EASTCENTRAL PLAINS

CITY           SKY/WX    TMP DP  RH WIND       PRES   REMARKS
TUCUMCARI      CLEAR     43  25  49 N10       30.39R
CANNON AFB     CLEAR     45  28  53 NE8       30.39R
CLOVIS AIRPORT CLEAR     43  27  52 NE9       30.40F

$$
NMZ028-029-538-310900-
SOUTHEAST PLAINS

CITY           SKY/WX    TMP DP  RH WIND       PRES   REMARKS
ROSWELL        CLEAR     49  33  54 W5        30.36R
CARLSBAD       CLEAR     54  46  74 N6        30.33R
HOBBS          CLEAR     54  32  43 NE8       30.35R HAZE


$$



USA.gov is the U.S. government's official web portal to all federal, state and local government web resources and services.